www.pogodaiklimat.ru

ПОГОДА в Усть-Нере

  • Прогноз погоды в Усть-Нере
  • Монитор погоды в Усть-Нере
  • Климат города

АРХИВ ПОГОДЫ в Усть-Нере

Время (UTC), дата Ветер
(напр.,м/с)
 
Видим.   Явления Облачность Т
(С)
Тd
(С)
f
(%)
Тe
(С)
Тes
(С)
Комфортность P
(гПа)
Po
(гПа)
Тmin
(С)
Tmax
(С)
R
(мм)
S
(см)
03 11.01 ЮЗ 1 50 км 6/0
[Ci fib]
-51.2 -53.7 74 -58 -58 опасность
обморожения
1053.5 973.0
06 11.01 З 1 50 км 4/0
[Ci fib]
-51.6 -55.2 65 -58 -58 опасность
обморожения
1054.7 974.0
09 11.01 З 1 20 км 4/0
[Ci fib]
-51.3 -53.7 75 -58 -58 опасность
обморожения
1055.9 975.1 -51.2
12 11.01 штиль 0 20 км 9/0
[Ci fib]
-49.9 -53.7 64 -50 -50 опасность
обморожения
1056.5 976.2
15 11.01 СВ 1 20 км 10/0
[Cs]
-48.4 -51.2 72 -55 -55 опасность
обморожения
1056.4 976.5
18 11.01 СВ 1 20 км 10/0
[Cs]
-47.4 -50.2 73 -53 -53 опасность
обморожения
1056.1 976.6
21 11.01 штиль 0 10 км 10/0
[As op]
-45.2 -47.8 75 -45 -45 опасность
обморожения
1055.7 977.1 -51.3 19
00 12.01 штиль 0 20 км 10/0
[Cs]
-43.8 -46.3 76 -44 -44 опасность
обморожения
1056.2 977.9
03 12.01 штиль 0 50 км 10/0
[Cs]
-42.4 -45.6 71 -42 -42 опасность
обморожения
1055.1 977.4
06 12.01 штиль 0 20 км 8/0
[Ac trans Ci fib]
-42.2 -45.6 69 -42 -42 опасность
обморожения
1055.4 977.8
09 12.01 штиль 0 20 км 8/0
[Ac trans Ci fib]
-41.7 -45.0 70 -42 -42 опасность
обморожения
1056.1 978.6 -41.7
12 12.01 СВ 1 20 км 10/0
[Ac trans Cs]
-40.8 -43.8 73 -46 -46 опасность
обморожения
1055.9 978.5
15 12.01 ЮЗ 1 20 км 10/0
[Cs]
-41.8 -44.4 76 -47 -47 опасность
обморожения
1055.8 978.2
18 12.01 З 2 20 км 8/0
[Ci fib]
-43.8 -46.3 76 -54 -54 опасность
обморожения
1056.4 978.1
21 12.01 штиль 0 20 км 8/0
[Ci fib]
-43.1 -45.6 76 -43 -43 опасность
обморожения
1055.5 977.5 -43.9 19
00 13.01 ЮЗ 2 20 км 10/0
[Cs]
-42.3 -45.0 75 -52 -52 опасность
обморожения
1055.1 977.4
03 13.01 ЮЗ 1 20 км 10/0
[As trans]
-40.5 -43.3 74 -46 -46 опасность
обморожения
1054.1 977.1
06 13.01 ЮЗ 1 50 км 10/0
[Ac As]
-38.8 -41.8 73 -44 -44 опасность
обморожения
1052.7 976.3
09 13.01 штиль 0 20 км 4/0
[Ci fib]
-40.7 -43.3 76 -41 -41 опасность
обморожения
1053.2 976.2 -38.8
12 13.01 штиль 0 20 км ясно -42.6 -45.6 72 -43 -43 опасность
обморожения
1054.4 976.7
15 13.01 штиль 0 20 км ясно -42.8 -45.6 74 -43 -43 опасность
обморожения
1054.6 976.7
18 13.01 штиль 0 20 км 3/0
[Ci fib]
-42.6 -45.6 72 -43 -43 опасность
обморожения
1053.8 976.2
21 13.01 штиль 0 20 км 8/0
[Ci fib]
-42.4 -45.0 75 -42 -42 опасность
обморожения
1057.8 976.2 -43.1 19
00 14.01 штиль 0 50 км 8/0
[Ci fib]
-42.8 -45.6 74 -43 -43 опасность
обморожения
1054.5 976.6
03 14.01 штиль 0 50 км 8/0
[Ci fib]
-40.8 -43.8 73 -41 -41 опасность
обморожения
1053.2 976.1
06 14.01 штиль 0 50 км 9/0
[Ci fib]
-41.3 -43.8 77 -41 -41 опасность
обморожения
1053.7 976.4
09 14.01 штиль 0 10 км 8/0
[Ci fib]
-42.3 -45.0 75 -42 -42 опасность
обморожения
1054.6 976.9 -40.8
12 14.01 штиль 0 10 км 10/0
[Ci fib]
-42.4 -45.0 75 -42 -42 опасность
обморожения
1054.9 977.2
15 14.01 штиль 0 10 км 9/0
[Ci fib]
-42.5 -45.0 76 -43 -43 опасность
обморожения
1054.6 976.9
18 14.01 штиль 0 20 км 4/0
[Ci fib]
-43.9 -46.3 77 -44 -44 опасность
обморожения
1055.3 977.1
21 14.01 штиль 0 20 км 4/0
[Ci fib]
-44.2 -47.0 73 -44 -44 опасность
обморожения
1055.6 977.4 -44.5 19
00 15.01 штиль 0 50 км 3/0
[Ci fib]
-44.7 -47.0 78 -45 -45 опасность
обморожения
1056.0 977.5 -44.8
03 15.01 штиль 0 50 км ясно -44.2 -47.0 73 -44 -44 опасность
обморожения
1055.2 977.0
06 15.01 штиль 0 50 км ясно -45.1 -47.8 74 -45 -45 опасность
обморожения
1055.4 976.8
09 15.01 штиль 0 20 км ясно -46.4 -48.6 78 -46 -46 опасность
обморожения
1055.9 976.8 -42.3
12 15.01 штиль 0 10 км ясно -46.9 -49.6 74 -47 -47 опасность
обморожения
1056.5 977.2
15 15.01 штиль 0 10 км ясно -47.4 -49.6 78 -47 -47 опасность
обморожения
1056.9 977.0
18 15.01 штиль 0 10 км ясно -48.2 -50.6 76 -48 -48 опасность
обморожения
1056.7 977.0
21 15.01 штиль 0 10 км ясно -49.0 -51.8 72 -49 -49 опасность
обморожения
1057.3 977.3 -49.3 19
00 16.01 штиль 0 10 км ясно -48.9 -52.4 67 -49 -49 опасность
обморожения
1057.8 977.7
03 16.01 штиль 0 50 км ясно -48.2 -51.2 71 -48 -48 опасность
обморожения
1057.3 977.5
06 16.01 штиль 0 50 км ясно -48.7 -52.4 65 -49 -49 опасность
обморожения
1057.1 977.2
09 16.01 штиль 0 10 км ясно -49.7 -52.4 73 -50 -50 опасность
обморожения
1057.3 977.1 -48.2
12 16.01 штиль 0 10 км ясно -49.9 -53.7 64 -50 -50 опасность
обморожения
1057.5 977.1
15 16.01 штиль 0 10 км ясно -49.9 -53.7 64 -50 -50 опасность
обморожения
1056.7 976.4
18 16.01 штиль 0 10 км ясно -50.6 -53.7 69 -51 -51 опасность
обморожения
1056.6 976.1
21 16.01 штиль 0 10 км ясно -50.9 -53.7 72 -51 -51 опасность
обморожения
1056.2 975.5 -51.0 19
00 17.01 штиль 0 20 км ясно -51.2 -53.7 74 -51 -51 опасность
обморожения
1055.6 975.0 -51.3
03 17.01 штиль 0 20 км ясно -49.5 -52.4 71 -50 -49 опасность
обморожения
1054.0 974.0
06 17.01 штиль 0 20 км ясно -50.2 -53.7 66 -50 -50 опасность
обморожения
1053.3 973.2
09 17.01 штиль 0 10 км ясно -50.8 -53.7 71 -51 -51 опасность
обморожения
1053.5 973.0 -49.5
12 17.01 штиль 0 10 км ясно -51.2 -53.7 74 -51 -51 опасность
обморожения
1052.8 972.4
15 17.01 штиль 0 10 км ясно -51.5 -55.2 64 -52 -52 опасность
обморожения
1051.9 971.4
18 17.01 штиль 0 10 км ясно -52.0 -55.2 68 -52 -52 опасность
обморожения
1051.5 970.8
21 17.01 штиль 0 10 км ясно -51.8 -55.2 67 -52 -52 опасность
обморожения
1050.7 970.1 -52.4 19
00 18.01 штиль 0 20 км ясно -51.9 -55.2 67 -52 -52 опасность
обморожения
1049.9 969.4

 

Местоположение метеостанции Усть-Нера (Якутия, Россия): широта 64.53 долгота 143.10 высота над уровнем моря 519 м.

В архиве по умолчанию представлена погода в Усть-Нере за последнюю неделю. Архивные данные за месяц целиком и за предыдущие месяцы, начиная с января 2011 года, Вы можете получить, выбрав интересующий диапазон дат из раскрывающегося списка и нажав кнопку "Ввод!".

Внимание! Время в таблицах - всемирное. Для получения местного времени необходимо прибавить поправку, которая в Усть-Нере равна 10 ч.

Ветер - указаны скорость ветра в м/с - средняя за 10 мин, порывы в срок и между сроками (в фигурных скобках) и направление, откуда дует ветер: С - северный, СВ - северо-восточный, В - восточный, ЮВ - юго-восточный, Ю - южный, ЮЗ - юго-западный, З - западный, СЗ - северо-западный.
Видимость - горизонтальная дальность видимости в метрах или километрах. При видимости от 1 до 10 км при отсутствии осадков обычно наблюдается дымка, при ухудшении видимости до 1 км и менее - туман. В сухую погоду видимость может ухудшаться дымом, пылью или мглою.
Явления - указаны атмосферные явления, наблюдавшиеся в срок или в последний час перед сроком; фигурными скобками обозначены явления, наблюдавшиеся между сроками (за 1-3 часа до срока); квадратными скобками обозначены град или гололедные отложения с указанием их диаметра в мм.
Облачность - указаны через наклонную черту общая и нижняя облачность в баллах и высота нижней границы облаков в метрах; квадратными скобками обозначены формы облаков: Ci - перистые, Cs - перисто-слоистые, Cc - перисто-кучевые, Ac - высококучевые, As - высокослоистые, Sc - слоисто-кучевые, Ns - слоисто-дождевые, Cu - кучевые, Cb - кучево-дождевые. Подробнее классификацию облаков см. в Атласе облаков (PDF).
T - Температура воздуха - температура, измеренная на высоте 2 м над землей.
Td - Температура точки росы - температура, при понижении до которой содержащийся в воздухе водяной пар достигнет насыщения.
f - Относительная влажность воздуха - влажноcть воздуха, измеренная на высоте 2 м над землей.
Te - Эффективная температура - температура, которую ощущает одетый по сезону человек в тени. Характеристика душности погоды. При расчете учитывается влияние влажности воздуха и скорости ветра на теплоощущения человека.
Tes - Эффективная температура на солнце - температура, которую ощущает человек, с поправкой на солнечный нагрев. Характеристика знойности погоды. Зависит от высоты солнца над горизонтом, облачности и скорости ветра. Ночью, в пасмурную погоду, а также при ветре 12 м/с и более поправка равна нулю.
P - Атмосферное давление - приведенное к уровню моря атмосферное давление.
Po - Атмосферное давление - измеренное на уровне метеостанции атмосферное давление.
Tmin - Минимальная температура - минимум температуры воздуха на высоте 2 м над землей.
Tmax - Максимальная температура - максимум температуры воздуха на высоте 2 м над землей.
R - Количество осадков - Количество выпавших осадков, мм. При наведении курсора мыши на число - период времени, за который выпало указанное количество осадков.
S - Снежный покров - Высота снежного покрова, см. При наведении курсора мыши на число - состояние снежного покрова и степень покрытия местности в баллах.